Weather

DAILY 7 DAY TOTAL
onrain

Note: Some stations are located near irrigated fields and may also report irrigation

Alliston Mount Forest Blyth Guelph Grand Bend Strathroy Woodstock Belmont Simcoe Leamington Chatham West Lorne






Belmont - Historical Weather Data
Date Max Temp (°C) Min Temp (°C) Avg Temp (°C) Rain (mm) 7Day Rain(mm) Total Rain(mm) Avg RH (%)
9/21/2019 28.6 12.3 20.1 0.0 0.2 -2643.4 96.8
9/20/2019 27.2 9.6 17.7 0.0 0.2 -2643.4 94.8
9/19/2019 23.6 9.0 17.2 0.0 4.0 -2643.4 92.4
9/18/2019 24.2 8.8 16.5 0.0 5.6 -2643.4 88.7
9/17/2019 23.9 10.7 16.9 0.0 16.8 -2643.4 90.4
9/16/2019 25.2 14.7 19.0 0.2 16.8 -2643.4 99.0
9/15/2019 23.9 9.0 16.2 0.0 16.6 -2643.6 99.1
9/14/2019 22.9 11.2 17.6 0.0 16.6 -2643.6 94.5
9/13/2019 26.6 12.7 18.9 3.8 16.6 -2643.6 99.9
9/12/2019 19.2 12.8 16.3 1.6 12.8 -2647.4 99.9
9/11/2019 30.3 16.4 22.5 11.2 11.2 -2649.0 97.7
9/10/2019 26.1 11.6 18.9 0.0 3.2 -2660.2 97.2
9/9/2019 22.4 7.7 14.0 0.0 7.4 -2660.2 96.8
9/8/2019 19.1 9.7 14.3 0.0 8.0 -2660.2 96.1
9/7/2019 23.1 10.4 16.5 0.0 9.6 -2660.2 95.1
9/6/2019 20.9 7.9 15.1 0.0 9.6 -2660.2 96.8
9/5/2019 22.4 5.3 13.7 0.0 9.6 -2660.2 90.6
9/4/2019 22.1 8.6 17.0 3.2 9.6 -2660.2 98.6
9/3/2019 24.9 10.5 18.8 4.2 6.6 -2663.4 99.1
9/2/2019 25.5 14.7 19.6 0.6 21.4 -2667.6 95.5
9/1/2019 20.0 12.6 16.5 1.6 21.0 -2668.2 99.5
8/31/2019 22.5 7.4 15.4 0.0 19.4 -2669.8 87.6
8/30/2019 23.6 11.2 19.3 0.0 19.4 -2669.8 89.4
8/29/2019 24.4 10.2 18.8 0.0 19.4 -2669.8 90.7
8/28/2019 25.1 15.0 20.3 0.2 19.4 -2669.8 87.7
8/27/2019 24.5 17.7 20.5 19.0 37.0 -2670.0 99.7
8/26/2019 24.0 13.6 19.2 0.2 18.8 -2689.0 92.6
8/25/2019 24.0 9.5 17.4 0.0 19.4 -2689.2 89.2
8/24/2019 23.1 8.2 15.9 0.0 36.8 -2689.2 87.0
8/23/2019 23.0 8.1 15.6 0.0 40.8 -2689.2 90.3
8/22/2019 22.9 10.7 18.2 0.0 40.8 -2689.2 91.6
8/21/2019 29.6 18.5 22.6 17.8 40.8 -2689.2 97.3
8/20/2019 29.9 15.6 22.8 0.8 23.0 -2707.0 94.5
8/19/2019 27.4 16.9 22.1 0.8 22.2 -2707.8 96.6
8/18/2019 28.7 18.8 22.6 17.4 21.4 -2708.6 98.8
8/17/2019 29.3 14.2 22.6 4.0 4.0 -2726.0 91.9
8/16/2019 27.5 13.4 20.0 0.0 0.0 -2730.0 93.8
8/15/2019 26.2 14.6 19.9 0.0 0.0 -2730.0 90.6
8/14/2019 28.0 14.7 21.3 0.0 4.0 -2730.0 86.7
8/13/2019 29.7 18.3 23.5 0.0 4.0 -2730.0 90.2
8/12/2019 28.8 16.4 22.3 0.0 4.4 -2730.0 96.0
8/11/2019 27.6 9.8 19.4 0.0 4.4 -2730.0 89.8
8/10/2019 24.4 10.0 17.7 0.0 6.6 -2730.0 86.6
8/9/2019 26.1 11.2 19.1 0.0 6.6 -2730.0 86.1
8/8/2019 26.7 13.9 19.8 4.0 6.6 -2730.0 93.9
8/7/2019 29.1 15.2 21.4 0.0 2.6 -2734.0 93.1
8/6/2019 26.4 17.6 22.3 0.4 2.6 -2734.0 98.8
8/5/2019 28.8 14.3 21.5 0.0 4.8 -2734.4 95.4
8/4/2019 27.8 15.2 20.8 2.2 16.4 -2734.4 96.8
8/3/2019 29.0 11.3 20.4 0.0 39.8 -2736.6 87.8
8/2/2019 28.4 12.9 20.7 0.0 39.8 -2736.6 84.3
8/1/2019 27.9 12.6 20.1 0.0 39.8 -2736.6 90.5
7/31/2019 27.2 14.3 20.6 0.0 39.8 -2736.6 90.2
7/30/2019 29.0 19.4 23.1 2.6 39.8 -2736.6 94.2
7/29/2019 29.3 17.7 23.4 11.6 37.2 -2739.2 95.7
7/28/2019 30.0 18.8 23.3 25.6 26.0 -2750.8 97.3
7/27/2019 29.1 14.6 22.9 0.0 0.8 -2776.4 89.8
7/26/2019 29.1 13.2 21.4 0.0 12.2 -2776.4 90.6
7/25/2019 28.4 12.3 20.2 0.0 12.2 -2776.4 88.3
7/24/2019 26.4 12.5 19.2 0.0 12.2 -2776.4 85.2
7/23/2019 25.5 10.9 18.9 0.0 19.6 -2776.4 84.0
7/22/2019 25.6 16.3 20.3 0.4 21.4 -2776.4 95.2
7/21/2019 27.6 18.0 22.6 0.4 21.0 -2776.8 93.1
7/20/2019 33.9 21.1 26.7 11.4 20.6 -2777.2 93.0
7/19/2019 32.0 21.4 26.5 0.0 38.2 -2788.6 99.5
7/18/2019 29.9 17.7 23.2 0.0 38.2 -2788.6 98.7
7/17/2019 29.7 19.7 24.5 7.4 38.2 -2788.6 97.2
7/16/2019 29.0 17.6 23.4 1.8 34.6 -2796.0 97.8
7/15/2019 28.4 8.5 19.8 0.0 32.8 -2797.8 84.3
7/14/2019 27.7 11.6 19.7 0.0 32.8 -2797.8 88.4
7/13/2019 29.8 12.7 20.8 29.0 37.8 -2797.8 95.3
7/12/2019 24.5 14.6 19.6 0.0 22.2 -2826.8 94.6
7/11/2019 30.0 17.3 23.5 0.0 22.2 -2826.8 93.6
7/10/2019 31.2 13.3 22.8 3.8 22.2 -2826.8 89.1
7/9/2019 28.1 10.2 19.4 0.0 18.8 -2830.6 86.9
7/8/2019 26.3 12.1 19.3 0.0 20.6 -2830.6 86.0
7/7/2019 25.6 15.8 21.4 5.0 20.6 -2830.6 92.3
7/6/2019 29.4 21.9 24.9 13.4 15.6 -2835.6 98.0
7/5/2019 32.1 18.5 25.8 0.0 12.2 -2849.0 93.6
7/4/2019 31.4 16.1 23.8 0.0 15.8 -2849.0 93.5
7/3/2019 30.5 18.8 23.7 0.4 15.8 -2849.0 96.4
7/2/2019 29.3 17.2 22.8 1.8 17.6 -2849.4 96.4
7/1/2019 28.3 10.1 20.2 0.0 16.0 -2851.2 88.6
6/30/2019 25.4 13.2 19.7 0.0 20.0 -2851.2 88.0
6/29/2019 28.7 15.8 22.7 10.0 20.0 -2851.2 94.2
6/28/2019 30.6 13.0 22.2 3.6 10.0 -2861.2 91.3
6/27/2019 30.5 13.9 21.6 0.0 6.4 -2864.8 85.1
6/26/2019 29.9 15.9 22.8 2.2 21.2 -2864.8 84.2
6/25/2019 27.0 17.0 21.3 0.2 19.0 -2867.0 90.2
6/24/2019 26.9 14.2 21.1 4.0 18.8 -2867.2 95.4
6/23/2019 25.6 7.8 18.0 0.0 14.8 -2871.2 80.5
6/22/2019 25.3 7.0 17.2 0.0 14.8 -2871.2 82.3
6/21/2019 21.6 11.4 16.7 0.0 14.8 -2871.2 87.8
6/20/2019 19.5 15.5 17.4 14.8 14.8 -2871.2 99.9
6/19/2019 27.4 11.1 19.9 0.0 0.0 -2886.0 86.4
6/18/2019 26.6 11.0 18.8 0.0 0.0 -2886.0 91.6
6/17/2019 24.4 9.4 17.3 - 0.0 -2886.0 92.4
6/16/2019 18.3 10.7 15.4 - 0.2 -1887.0 99.2
6/15/2019 18.5 15.5 16.8 - 0.2 -888.0 97.0
6/14/2019 22.4 9.4 15.7 0.0 0.2 111.0 87.1
6/13/2019 20.5 10.3 15.4 0.0 0.2 111.0 98.4
6/12/2019 23.1 6.2 16.4 0.0 0.2 111.0 77.8
6/11/2019 22.2 7.0 15.3 0.0 0.2 111.0 82.8
6/10/2019 22.4 12.2 17.6 0.2 0.2 111.0 97.1
6/9/2019 25.9 14.7 21.0 0.0 0.0 110.8 82.9
6/8/2019 26.4 9.7 19.0 0.0 0.6 110.8 74.7
6/7/2019 26.3 9.6 18.1 0.0 1.2 110.8 85.3
6/6/2019 23.9 12.2 17.1 0.0 1.2 110.8 97.8
6/5/2019 23.5 15.8 18.4 0.0 1.2 110.8 99.9
6/4/2019 21.9 4.2 14.6 0.0 1.2 110.8 91.4
6/3/2019 15.6 3.8 10.2 0.0 1.4 110.8 87.7
6/2/2019 18.5 7.2 14.3 0.6 1.4 110.8 87.3
6/1/2019 24.1 13.2 17.2 0.6 0.8 110.2 98.5
5/31/2019 22.7 7.3 15.5 0.0 0.4 109.6 86.4
5/30/2019 21.0 12.2 16.3 0.0 0.4 109.6 99.0
5/29/2019 17.0 10.7 13.4 0.0 6.6 109.6 99.9
5/28/2019 16.6 11.6 14.0 0.2 8.0 109.6 99.4
5/27/2019 24.2 6.3 16.0 0.0 7.8 109.4 87.5
5/26/2019 22.3 10.1 17.2 0.0 7.8 109.4 94.4
5/25/2019 28.4 10.2 18.0 0.2 10.0 109.4 97.8
5/24/2019 17.8 7.4 13.6 0.0 10.0 109.2 97.1
5/23/2019 26.3 8.9 17.9 6.2 10.0 109.2 88.1
5/22/2019 18.0 5.2 12.3 1.4 3.8 103.0 90.0
5/21/2019 18.9 1.4 10.9 0.0 3.6 101.6 86.7
5/20/2019 16.3 4.0 12.2 0.0 3.6 101.6 97.3
5/19/2019 27.4 8.5 17.4 2.2 9.2 101.6 93.8
5/18/2019 18.6 4.0 12.0 0.2 10.2 99.4 89.8
5/17/2019 18.0 6.8 14.1 0.0 10.0 99.2 92.0
5/16/2019 19.2 3.5 13.3 0.0 25.4 99.2 87.6
5/15/2019 21.7 3.7 12.0 1.2 42.6 99.2 88.7
5/14/2019 16.7 5.1 9.9 0.0 41.4 98.0 88.7
5/13/2019 8.8 4.9 6.4 5.6 56.6 98.0 99.9
5/12/2019 10.0 5.7 7.7 3.2 51.6 92.4 97.4
5/11/2019 12.6 -0.7 7.2 0.0 48.4 89.2 89.3
5/10/2019 16.3 2.8 10.8 15.4 49.0 89.2 98.6
5/9/2019 22.9 7.3 14.4 17.2 41.6 73.8 90.4
5/8/2019 13.7 3.9 9.0 0.0 27.0 56.6 77.8
5/7/2019 10.7 4.9 7.9 15.2 56.6 56.6 99.0
5/6/2019 21.7 3.8 13.0 0.6 46.2 41.4 92.3
5/5/2019 20.9 5.1 12.2 0.0 48.8 40.8 89.4
5/4/2019 11.9 6.8 10.0 0.6 52.0 40.8 99.9
5/3/2019 13.5 9.0 10.6 8.0 51.6 40.2 99.9
5/2/2019 18.6 5.8 11.8 2.6 58.8 32.2 98.3
5/1/2019 19.4 5.3 11.3 29.6 56.2 29.6 99.6